W2PJ Weather Reports


time (UTC)temp
C
wind
direction
speed
KPH
gust
KPH
rain 1hr
cm
rain 24hr
cm
rain mn
cm
humidity
%
barometer
mb
20260509200542 13 212 3.2 30.6 0.00 0.03 0.03 77 1006.1
20260509200044 13 235 0.0 12.9 0.00 0.03 0.03 78 1006.2
20260509195541 13 224 3.2 12.9 0.00 0.05 0.03 78 1006.2
20260509195043 13 234 0.0 14.5 0.00 0.05 0.03 78 1006.3
20260509194540 13 129 1.6 19.3 0.00 0.05 0.03 78 1006.3
20260509194039 13 197 3.2 20.9 0.00 0.05 0.03 79 1006.4
20260509193539 13 235 3.2 20.9 0.00 0.05 0.03 80 1006.4
20260509193045 13 228 1.6 14.5 0.00 0.05 0.03 80 1006.5
20260509192536 13 189 3.2 14.5 0.00 0.05 0.03 80 1006.5
20260509192045 13 219 1.6 14.5 0.00 0.05 0.03 81 1006.6
20260509191539 12 178 1.6 16.1 0.00 0.05 0.03 81 1006.6
20260509191035 12 173 0.0 25.7 0.00 0.05 0.03 80 1006.7
20260509190537 12 176 0.0 25.7 0.00 0.05 0.03 80 1006.8
20260509190043 12 175 0.0 16.1 0.00 0.05 0.03 82 1006.9
20260509185531 12 178 4.8 16.1 0.00 0.05 0.03 81 1007.0
20260509185031 12 234 0.0 12.9 0.00 0.05 0.03 82 1006.9
20260509184535 12 193 1.6 16.1 0.00 0.05 0.03 82 1007.0
20260509184029 12 251 1.6 16.1 0.00 0.05 0.03 82 1007.1
20260509183529 12 214 0.0 9.7 0.00 0.05 0.03 83 1007.2
20260509183037 12 207 1.6 19.3 0.00 0.05 0.03 82 1007.2
20260509182528 12 245 3.2 19.3 0.00 0.05 0.03 82 1007.2
20260509182031 12 228 0.0 14.5 0.00 0.05 0.03 82 1007.2
20260509181527 12 174 0.0 14.5 0.00 0.05 0.03 82 1007.1
20260509181030 12 214 0.0 16.1 0.00 0.05 0.03 83 1007.1
20260509180525 12 227 1.6 16.1 0.00 0.05 0.03 83 1007.1
20260509180026 12 248 0.0 11.3 0.00 0.05 0.03 84 1007.2
20260509175525 12 228 0.0 11.3 0.00 0.05 0.03 84 1007.1
20260509175028 12 211 0.0 11.3 0.00 0.05 0.03 84 1007.1
20260509174526 12 116 1.6 12.9 0.00 0.05 0.03 84 1007.2
20260509174023 12 189 0.0 12.9 0.00 0.05 0.03 85 1007.2
20260509173523 11 219 0.0 12.9 0.00 0.05 0.03 85 1007.2
20260509173022 11 136 0.0 19.3 0.00 0.05 0.03 85 1007.3
20260509172522 11 189 1.6 22.5 0.00 0.05 0.03 85 1007.2
20260509172019 11 193 6.4 22.5 0.00 0.05 0.03 85 1007.3
20260509171522 11 231 4.8 14.5 0.00 0.05 0.03 86 1007.4
20260509171018 11 220 0.0 3.2 0.00 0.05 0.03 87 1007.5
20260509170517 11 171 0.0 0.0 0.00 0.05 0.03 87 1007.5
20260509170026 11 217 0.0 12.9 0.00 0.05 0.03 87 1007.5
20260509165513 11 167 0.0 12.9 0.00 0.05 0.03 86 1007.5
20260509165012 11 169 0.0 6.4 0.00 0.05 0.03 87 1007.6
20260509164511 11 169 0.0 9.7 0.00 0.05 0.03 88 1007.6
20260509164014 11 183 0.0 9.7 0.00 0.05 0.03 88 1007.7
20260509163508 10 188 0.0 11.3 0.00 0.05 0.03 89 1007.7
20260509163010 10 231 0.0 11.3 0.00 0.05 0.03 89 1007.9
20260509162507 10 197 0.0 4.8 0.00 0.05 0.03 89 1007.9
20260509162010 10 185 0.0 4.8 0.00 0.05 0.03 89 1008.0
20260509161505 10 207 0.0 4.8 0.00 0.05 0.03 90 1008.0
20260509161003 10 119 0.0 6.4 0.00 0.05 0.03 90 1008.1
20260509160502 10 162 0.0 6.4 0.00 0.05 0.03 90 1008.1
20260509160002 10 146 0.0 4.8 0.00 0.05 0.03 90 1008.2
20260509155501 10 145 0.0 11.3 0.00 0.05 0.03 90 1008.3
20260509155100 10 174 1.6 11.3 0.00 0.05 0.03 90 1008.2
20260509154600 10 139 0.0 0.0 0.00 0.05 0.03 90 1008.3
20260509154101 10 150 0.0 1.6 0.00 0.05 0.03 90 1008.3
20260509153559 10 164 0.0 1.6 0.00 0.05 0.03 90 1008.4
20260509153102 10 155 0.0 1.6 0.00 0.05 0.03 90 1008.4
20260509152558 10 148 0.0 3.2 0.00 0.05 0.03 90 1008.5
20260509152057 10 169 0.0 3.2 0.00 0.05 0.03 90 1008.6
20260509151606 10 190 0.0 1.6 0.00 0.05 0.03 90 1008.7
20260509151100 10 133 0.0 6.4 0.00 0.05 0.03 90 1008.7
20260509150557 10 138 0.0 6.4 0.00 0.05 0.03 91 1008.7
20260509150057 10 145 0.0 0.0 0.00 0.05 0.03 90 1008.6
20260509145558 10 132 0.0 0.0 0.00 0.15 0.03 90 1008.7
20260509145054 10 178 0.0 1.6 0.00 0.15 0.03 91 1008.7
20260509144554 10 144 0.0 1.6 0.00 0.15 0.03 91 1008.7
20260509144052 10 155 0.0 11.3 0.00 0.15 0.03 91 1008.7
20260509143553 9 150 0.0 11.3 0.00 0.15 0.03 92 1008.7
20260509143050 9 120 0.0 9.7 0.00 0.15 0.03 92 1008.8
20260509142548 9 136 0.0 1.6 0.03 0.15 0.03 92 1008.8
20260509142048 8 119 0.0 1.6 0.03 0.15 0.03 92 1008.9
20260509141549 8 231 0.0 0.0 0.03 0.15 0.03 92 1009.0
20260509141045 8 238 0.0 0.0 0.03 0.15 0.03 92 1009.0
20260509140546 8 165 0.0 0.0 0.03 0.15 0.03 92 1009.1
20260509140045 8 165 0.0 0.0 0.03 0.15 0.03 92 1009.0
20260509135542 8 114 0.0 9.7 0.03 0.38 0.03 92 1009.1
20260509135041 8 138 0.0 9.7 0.03 0.38 0.03 92 1009.1
20260509134552 8 151 0.0 1.6 0.03 0.38 0.03 92 1009.1
20260509134045 8 158 0.0 0.0 0.03 0.38 0.03 92 1009.2
20260509133540 8 150 0.0 0.0 0.03 0.38 0.03 92 1009.2
20260509133042 8 227 0.0 1.6 0.03 0.38 0.03 92 1009.1
20260509132541 8 157 0.0 1.6 0.00 0.36 0.00 92 1009.1
20260509132042 8 207 0.0 9.7 0.00 0.36 0.00 92 1009.1
20260509131556 8 168 0.0 9.7 0.00 0.36 0.00 92 1009.1
20260509131037 8 164 0.0 4.8 0.00 0.36 0.00 92 1009.0
20260509130539 8 162 0.0 4.8 0.00 0.36 0.00 92 1009.0
20260509130049 7 133 0.0 4.8 0.00 0.36 0.00 92 1009.0
20260509125536 7 190 0.0 8.0 0.00 0.36 0.00 92 1008.9
20260509125034 7 167 0.0 11.3 0.00 0.36 0.00 92 1009.0
20260509124542 7 139 0.0 11.3 0.00 0.36 0.00 92 1009.1
20260509124034 7 247 0.0 11.3 0.00 0.36 0.00 91 1009.1
20260509123534 7 107 0.0 4.8 0.00 0.36 0.00 91 1009.1
20260509123037 7 178 0.0 4.8 0.00 0.36 0.00 91 1009.2
20260509122533 7 113 0.0 11.3 0.00 0.36 0.00 90 1009.2
20260509122034 7 144 0.0 9.7 0.00 0.36 0.00 90 1009.3
20260509121532 7 145 0.0 16.1 0.00 0.36 0.00 90 1009.3
20260509121032 7 162 0.0 12.9 0.00 0.36 0.00 89 1009.3
20260509120533 7 129 0.0 14.5 0.00 0.36 0.00 89 1009.2
20260509120034 7 167 0.0 11.3 0.00 0.36 0.00 88 1009.4
20260509115531 7 133 0.0 17.7 0.00 0.36 0.00 88 1009.5
20260509115027 7 140 0.0 17.7 0.00 0.36 0.00 88 1009.5
20260509114526 7 148 0.0 12.9 0.00 0.36 0.00 88 1009.6
20260509114025 7 136 0.0 12.9 0.00 0.36 0.00 88 1009.6
20260509113528 7 168 0.0 16.1 0.00 0.36 0.00 87 1009.4
20260509113024 7 103 0.0 16.1 0.00 0.36 0.00 87 1009.5
20260509112523 7 176 0.0 8.0 0.00 0.36 0.00 87 1009.5
20260509112023 7 167 0.0 8.0 0.00 0.36 0.00 87 1009.5
20260509111624 7 157 0.0 3.2 0.00 0.36 0.00 87 1009.4
20260509111023 7 255 0.0 6.4 0.00 0.36 0.00 87 1009.5
20260509110523 7 176 0.0 6.4 0.00 0.36 0.00 86 1009.4
20260509110025 7 158 0.0 8.0 0.00 0.36 0.00 86 1009.4
20260509105520 7 154 0.0 8.0 0.00 0.38 0.00 86 1009.6
20260509105024 7 161 0.0 9.7 0.00 0.38 0.00 85 1009.6
20260509104519 7 169 0.0 9.7 0.00 0.38 0.00 85 1009.4
20260509104018 7 176 0.0 6.4 0.00 0.38 0.00 84 1009.4
20260509103518 7 165 0.0 1.6 0.00 0.38 0.00 83 1009.4
20260509103022 7 148 0.0 8.0 0.00 0.38 0.00 83 1009.5
20260509102518 7 169 0.0 8.0 0.00 0.38 0.00 82 1009.5
20260509102017 7 130 0.0 0.0 0.00 0.38 0.00 81 1009.5
20260509101521 7 224 0.0 0.0 0.00 0.38 0.00 81 1009.4
20260509101016 7 152 0.0 1.6 0.00 0.38 0.00 81 1009.4
20260509100517 7 140 0.0 3.2 0.00 0.38 0.00 80 1009.3
20260509100117 7 148 0.0 3.2 0.00 0.38 0.00 80 1009.2
20260509095515 7 150 0.0 0.0 0.00 0.38 0.00 79 1009.2
20260509095014 7 154 0.0 0.0 0.00 0.38 0.00 79 1009.0
20260509094515 7 157 0.0 0.0 0.00 0.38 0.00 78 1009.1
20260509094014 7 146 0.0 1.6 0.00 0.38 0.00 77 1009.1
20260509093512 7 152 0.0 1.6 0.00 0.38 0.00 77 1009.2
20260509093019 7 138 0.0 0.0 0.00 0.38 0.00 76 1009.2
20260509092511 7 129 0.0 0.0 0.00 0.38 0.00 75 1009.2
20260509092010 7 138 0.0 1.6 0.00 0.38 0.00 75 1009.1
20260509091511 7 118 0.0 8.0 0.00 0.38 0.00 74 1009.3
20260509091009 7 157 0.0 8.0 0.00 0.38 0.00 73 1009.3
20260509090508 7 86 0.0 0.0 0.00 0.38 0.00 72 1009.4
20260509090007 7 114 0.0 0.0 0.00 0.38 0.00 71 1009.6
20260509085507 7 162 0.0 0.0 0.00 0.38 0.00 70 1009.7
20260509085003 7 112 0.0 0.0 0.00 0.38 0.00 70 1009.7
20260509084508 7 145 0.0 0.0 0.00 0.38 0.00 69 1009.9
20260509084002 7 161 0.0 0.0 0.00 0.38 0.00 68 1009.8
20260509083602 7 119 0.0 0.0 0.00 0.38 0.00 68 1009.9
20260509083100 7 120 0.0 0.0 0.00 0.38 0.00 67 1009.8
20260509082559 6 121 0.0 0.0 0.00 0.38 0.00 66 1009.9
20260509082059 6 112 0.0 0.0 0.00 0.38 0.00 65 1010.0
20260509081559 6 112 0.0 0.0 0.00 0.38 0.00 64 1010.0
20260509081058 6 176 0.0 0.0 0.00 0.38 0.00 64 1010.0
20260509080557 6 138 0.0 1.6 0.00 0.38 0.00 63 1010.1
20260509080058 6 100 0.0 0.0 0.00 0.38 0.00 64 1010.2
20260509075557 6 145 0.0 0.0 0.00 0.51 0.00 64 1010.2
20260509075056 6 126 0.0 1.6 0.00 0.51 0.00 64 1010.2
20260509074602 6 128 0.0 1.6 0.00 0.51 0.00 64 1010.2
20260509074057 6 114 0.0 0.0 0.00 0.51 0.00 64 1010.3
20260509073555 6 161 0.0 0.0 0.00 0.51 0.00 64 1010.3
20260509073055 6 132 0.0 0.0 0.00 0.51 0.00 64 1010.3
20260509072559 6 138 0.0 0.0 0.00 0.51 0.00 64 1010.2
20260509072056 6 159 0.0 0.0 0.00 0.51 0.00 64 1010.2
20260509071600 6 157 0.0 0.0 0.00 0.51 0.00 64 1010.2
20260509071055 6 122 0.0 0.0 0.00 0.51 0.00 65 1010.1
20260509070554 6 138 0.0 0.0 0.00 0.51 0.00 64 1010.1
20260509065552 6 131 0.0 0.0 0.00 0.58 0.00 63 1010.3
20260509065052 6 131 0.0 0.0 0.00 0.58 0.00 63 1010.4
20260509064554 6 126 0.0 0.0 0.00 0.58 0.00 63 1010.3
20260509064050 6 131 0.0 0.0 0.00 0.58 0.00 64 1010.3
20260509063551 6 131 0.0 0.0 0.00 0.58 0.00 67 1010.4
20260509063050 6 138 0.0 0.0 0.00 0.58 0.00 68 1010.5
20260509062549 6 110 0.0 0.0 0.00 0.58 0.00 67 1010.6
20260509062048 6 143 0.0 0.0 0.00 0.58 0.00 68 1010.6
20260509061553 6 117 0.0 0.0 0.00 0.58 0.00 69 1010.7
20260509061047 6 114 0.0 0.0 0.00 0.58 0.00 70 1010.8
20260509060546 6 114 0.0 0.0 0.00 0.58 0.00 70 1010.8
20260509060046 6 119 0.0 0.0 0.00 0.58 0.00 71 1010.9
20260509055545 6 128 0.0 0.0 0.00 0.58 0.00 70 1011.0
20260509055048 6 124 0.0 0.0 0.00 0.58 0.00 71 1011.1
20260509054604 6 133 0.0 0.0 0.00 0.58 0.00 71 1011.1
20260509054044 6 122 0.0 0.0 0.00 0.58 0.00 70 1011.1
20260509053542 6 121 0.0 0.0 0.00 0.58 0.00 69 1011.2
20260509053136 6 124 0.0 0.0 0.00 0.58 0.00 68 1011.3
20260509052543 6 116 0.0 0.0 0.00 0.58 0.00 68 1011.4
20260509052040 6 145 0.0 0.0 0.00 0.58 0.00 67 1011.4
20260509051547 6 128 0.0 0.0 0.00 0.58 0.00 66 1011.4
20260509051039 6 117 0.0 0.0 0.00 0.58 0.00 65 1011.5
20260509050539 7 124 0.0 0.0 0.00 0.58 0.00 65 1011.5
20260509050045 6 114 0.0 0.0 0.00 0.58 0.00 65 1011.6
20260509045536 6 140 0.0 0.0 0.00 0.58 0.00 65 1011.6
20260509045037 6 144 0.0 0.0 0.00 0.58 0.00 66 1011.6
20260509044534 6 134 0.0 0.0 0.00 0.58 0.00 67 1011.6
20260509044032 6 110 0.0 0.0 0.00 0.58 0.00 67 1011.6
20260509043532 6 114 0.0 0.0 0.00 0.58 0.00 68 1011.7
20260509043031 6 122 0.0 0.0 0.00 0.58 0.00 69 1011.7
20260509042531 6 126 0.0 0.0 0.00 0.58 0.00 70 1011.7
20260509042028 5 112 0.0 0.0 0.00 0.58 0.00 71 1011.6
20260509041527 5 116 0.0 0.0 0.00 0.58 0.00 72 1011.7
20260509041026 5 132 0.0 0.0 0.00 0.58 0.00 73 1011.7
20260509040525 5 155 0.0 0.0 0.00 0.58 0.00 73 1011.7
20260509040023 5 138 0.0 0.0 0.00 0.58 0.00 73 1011.7
20260509035526 5 138 0.0 0.0 0.00 0.58 0.58 72 1011.6
20260509035025 5 138 0.0 0.0 0.00 0.58 0.58 71 1011.7
20260509034523 5 140 0.0 0.0 0.00 0.58 0.58 72 1011.6
20260509034022 5 119 0.0 0.0 0.00 0.58 0.58 72 1011.7
20260509033522 5 128 0.0 0.0 0.00 0.58 0.58 71 1011.6
20260509033022 5 162 0.0 0.0 0.00 0.58 0.58 71 1011.6
20260509032522 5 114 0.0 0.0 0.00 0.58 0.58 72 1011.6
20260509032021 5 140 0.0 0.0 0.00 0.58 0.58 72 1011.6
20260509031521 5 145 0.0 0.0 0.00 0.58 0.58 73 1011.6
20260509031021 5 129 0.0 0.0 0.00 0.58 0.58 73 1011.7
20260509030521 5 143 0.0 0.0 0.00 0.58 0.58 73 1011.9
20260509030031 5 128 0.0 0.0 0.00 0.58 0.58 73 1011.8
20260509025521 5 129 0.0 0.0 0.00 0.58 0.58 73 1011.8
20260509025019 5 117 0.0 0.0 0.00 0.58 0.58 73 1011.9
20260509024520 5 141 0.0 0.0 0.00 0.58 0.58 73 1011.9
20260509024019 5 122 0.0 0.0 0.00 0.58 0.58 72 1011.9
20260509023519 5 121 0.0 1.6 0.00 0.58 0.58 73 1012.0
20260509023027 5 154 0.0 1.6 0.00 0.58 0.58 73 1012.0
20260509022523 5 135 0.0 0.0 0.00 0.58 0.58 73 1012.0
20260509022019 5 123 0.0 0.0 0.00 0.58 0.58 72 1012.0
20260509021519 5 132 0.0 0.0 0.00 0.58 0.58 71 1012.0
20260509021018 5 130 0.0 0.0 0.00 0.58 0.58 72 1012.0
20260509020520 5 130 0.0 0.0 0.00 0.58 0.58 74 1012.0
20260509020018 5 127 0.0 0.0 0.00 0.58 0.58 74 1012.0
20260509015518 5 138 0.0 0.0 0.00 0.58 0.58 73 1011.9
20260509015017 5 129 0.0 0.0 0.00 0.58 0.58 73 1011.8
20260509014517 5 135 0.0 0.0 0.00 0.58 0.58 73 1011.8
20260509014017 5 105 0.0 0.0 0.00 0.58 0.58 74 1011.8
20260509013517 5 103 0.0 0.0 0.00 0.58 0.58 75 1011.8
20260509013016 5 102 0.0 0.0 0.00 0.58 0.58 76 1011.6
20260509012516 5 102 0.0 0.0 0.00 0.58 0.58 74 1011.5
20260509012021 5 103 0.0 0.0 0.00 0.58 0.58 73 1011.4
20260509011516 5 102 0.0 0.0 0.00 0.58 0.58 71 1011.4
20260509011015 6 135 0.0 0.0 0.00 0.58 0.58 70 1011.3
20260509010515 6 134 0.0 0.0 0.00 0.58 0.58 68 1011.2
20260509010017 6 134 0.0 0.0 0.00 0.58 0.58 68 1011.2
20260509005517 6 135 0.0 0.0 0.00 0.58 0.58 68 1011.1
20260509005015 6 135 0.0 0.0 0.00 0.58 0.58 66 1011.1
20260509004515 7 134 0.0 0.0 0.00 0.58 0.58 65 1011.1
20260509004015 7 134 0.0 0.0 0.00 0.58 0.58 64 1011.0
20260509003514 7 134 0.0 0.0 0.00 0.58 0.58 62 1011.0
20260509003019 7 136 0.0 0.0 0.00 0.58 0.58 63 1010.8
20260509002514 7 137 0.0 0.0 0.00 0.58 0.58 63 1010.9
20260509002014 8 137 0.0 0.0 0.00 0.58 0.58 60 1010.8
20260509001514 8 214 0.0 0.0 0.00 0.58 0.58 58 1010.8
20260509001016 9 214 0.0 0.0 0.00 0.58 0.58 55 1010.8
20260509000519 9 214 0.0 0.0 0.00 0.58 0.58 53 1010.8
20260509000013 10 214 0.0 0.0 0.00 0.58 0.58 53 1010.7
20260508235514 10 214 0.0 0.0 0.00 0.58 0.58 52 1010.6
20260508235009 10 214 0.0 0.0 0.00 0.58 0.58 51 1010.6
20260508234508 10 215 0.0 0.0 0.00 0.58 0.58 51 1010.6
20260508234009 10 264 0.0 0.0 0.00 0.58 0.58 50 1010.6
20260508233510 10 278 0.0 0.0 0.00 0.58 0.58 50 1010.5
20260508233008 10 253 0.0 0.0 0.00 0.58 0.58 49 1010.5
20260508232508 10 280 0.0 0.0 0.00 0.58 0.58 50 1010.4
20260508232008 10 272 0.0 0.0 0.00 0.58 0.58 49 1010.4
20260508231508 10 272 0.0 0.0 0.00 0.58 0.58 49 1010.4
20260508231009 10 285 0.0 0.0 0.00 0.58 0.58 50 1010.3
20260508230508 10 293 0.0 0.0 0.00 0.58 0.58 49 1010.4
20260508230009 10 296 0.0 0.0 0.00 0.58 0.58 50 1010.4
20260508225510 10 278 0.0 0.0 0.00 0.58 0.58 50 1010.5
20260508225032 10 269 0.0 0.0 0.00 0.58 0.58 50 1010.4
20260508224531 10 287 0.0 0.0 0.00 0.58 0.58 49 1010.4
20260508224029 10 300 0.0 0.0 0.00 0.58 0.58 48 1010.4
20260508223528 10 323 0.0 0.0 0.00 0.58 0.58 48 1010.5
20260508223016 10 253 0.0 16.1 0.00 0.58 0.58 46 1010.5
20260508222534 11 299 1.6 16.1 0.00 0.58 0.58 47 1010.6
20260508222052 11 272 0.0 8.0 0.00 0.58 0.58 49 1010.6
20260508221508 11 305 0.0 0.0 0.00 0.58 0.58 48 1010.6
20260508221028 11 311 0.0 0.0 0.00 0.58 0.58 50 1010.6
20260508220540 11 127 0.0 0.0 0.00 0.58 0.58 50 1010.7
20260508220052 10 276 0.0 0.0 0.00 0.58 0.58 50 1010.7
20260508215610 10 264 0.0 0.0 0.00 0.58 0.58 51 1010.7
20260508215129 11 257 0.0 0.0 0.00 0.58 0.58 49 1010.8
20260508214546 11 312 0.0 4.8 0.00 0.58 0.58 51 1010.7
20260508214104 10 258 0.0 11.3 0.00 0.58 0.58 51 1010.8
20260508213624 10 255 1.6 11.3 0.00 0.58 0.58 50 1010.8
20260508213025 10 290 0.0 0.0 0.00 0.58 0.58 55 1010.8
20260508212544 10 279 0.0 0.0 0.00 0.58 0.58 54 1010.7
20260508212058 10 290 0.0 1.6 0.00 0.58 0.58 53 1010.7
20260508211608 10 251 0.0 6.4 0.00 0.58 0.58 53 1010.7
20260508211020 10 305 0.0 14.5 0.00 0.58 0.58 54 1010.9
20260508210536 10 309 1.6 14.5 0.00 0.58 0.58 54 1010.9
20260508210117 10 278 1.6 12.9 0.00 0.58 0.58 54 1010.9
20260508205514 10 357 0.0 6.4 0.00 0.58 0.58 56 1010.9
20260508205028 9 273 0.0 8.0 0.00 0.58 0.58 54 1011.0
20260508204602 9 258 0.0 14.5 0.00 0.58 0.58 55 1011.0
20260508204119 9 314 1.6 14.5 0.00 0.58 0.58 54 1011.0
20260508203503 9 259 0.0 0.0 0.00 0.58 0.58 59 1010.9
20260508203045 8 204 0.0 1.6 0.00 0.58 0.58 58 1011.0
20260508202550 8 255 0.0 6.4 0.00 0.58 0.58 58 1011.1
20260508202102 9 268 0.0 20.9 0.00 0.58 0.58 58 1011.2
20260508201508 9 303 8.0 20.9 0.03 0.58 0.58 56 1011.2